Regional Weather Roundup
Issued by NWS

Home | Current Version | Previous Version | Graphics & Text | Print | Product List | Glossary On
Versions: 1 2 3 4 5 6 7 8 9 10 11 12 13 14 15 16 17 18 19 20 21 22 23 24 25 26 27 28 29 30 31 32 33 34 35 36 37 38 39 40 41 42 43 44 45 46 47 48 49 50
000
ASUS43 KMPX 221101
RWRMN
WEATHER ROUNDUP FOR MINNESOTA
NATIONAL WEATHER SERVICE TWIN CITIES/CHANHASSEN MN
500 AM CST MON DEC 22 2014


NOTE: "FAIR" INDICATES FEW OR NO CLOUDS BELOW 12,000 FEET WITH NO
SIGNIFICANT WEATHER AND/OR OBSTRUCTIONS TO VISIBILITY. N/A MEANS
CURRENT SKY AND/OR WEATHER CONDITIONS ARE NOT AVAILABLE.

MNZ060>063-068>070-221200-
   Twin Cities Metro

CITY           SKY/WX    TMP DP  RH WIND       PRES   REMARKS
TWIN CITIES    CLOUDY    37  35  92 SE15G23   29.67F FOG
ST PAUL        CLOUDY    37  35  92 SE13      29.69F
CRYSTAL        CLOUDY    38  36  92 SE14      29.65F FOG
BLAINE         CLOUDY    39  39 100 SE12G17   29.67S FOG
LAKEVILLE      CLOUDY    36  36 100 SE8       29.67S FOG
EDEN PRAIRIE   CLOUDY    38  36  92 SE13      29.65S FOG
SOUTH ST PAUL  CLOUDY    37  36  94 SE6       29.69S FOG
LAKE ELMO      CLOUDY    37  36  93 SE12      29.70S FOG
$$
MNZ001>005-007-008-013>017-022>024-027-028-221200-
   Northwest Minnesota

CITY           SKY/WX    TMP DP  RH WIND       PRES   REMARKS
BEMIDJI        CLOUDY    33  33  99 SE9       29.57S FOG     WCI  25
HALLOCK        CLOUDY    34  34 100 E8        29.55S FOG     WCI  27
ROSEAU         LGT SNOW  34  30  86 E9        29.59S WCI  26
WARROAD        CLOUDY    34  28  80 E9        29.61S FOG     WCI  26
THIEF RVR FALL CLOUDY    34  34 100 E13       29.55S WCI  25
CROOKSTON      PTCLDY    36  34  93 E9        29.54S FOG
FOSSTON        CLOUDY    34  34 100 E7        29.54F WCI  28
DETROIT LAKES  CLOUDY    36  36 100 SE12      29.52F FOG
MOORHEAD       CLOUDY    37  37 100 SE8G16    29.51S FOG
PARK RAPIDS    CLOUDY    36  34  92 SE12      29.55F FOG
MAHNOMEN       CLOUDY    35  34  95 SE10      29.53S WCI  27
$$
MNZ006-009>011-018-025>026-221200-
   North Central Minnesota

CITY           SKY/WX    TMP DP  RH WIND       PRES   REMARKS
BAUDETTE       LGT SNOW  33  31  92 E8        29.61F FOG     WCI  26
FLAG ISLAND    CLOUDY    34  30  86 SE5       29.62S FOG     WCI  30
INTL FALLS     LGT SNOW  33  32  96 SE7       29.65S FOG     WCI  27
WASKISH        CLOUDY    34  34 100 CALM      29.60F
BIG FORK       CLOUDY    34  34 100 SE5       29.63S FOG     WCI  30
LONGVILLE      CLOUDY    34  34 100 SE6       29.59F FOG     WCI  29
GRAND RAPIDS   CLOUDY    34  32  93 SE5       29.63F WCI  30
CRANE LAKE     RAIN      32  32 100 CALM      29.69S
ORR            LGT SNOW  32  30  93 SE3       29.63F
COOK           FLURRIES  34  32  93 SE6       29.67S WCI  29
WALKER         DRIZZLE   33  33  99 SE5       29.58S WCI  29
$$
MNZ012-019>021-037-221200-
   Northeast Minnesota

CITY           SKY/WX    TMP DP  RH WIND       PRES   REMARKS
DULUTH         LGT SNOW  33  31  92 SE9       29.68F FOG     WCI  25
ELY            LGT RAIN  34  32  93 SE6       29.68F WCI  29
HIBBING        CLOUDY    34  31  88 SE8       29.66S FOG     WCI  27
EVELETH        CLOUDY    32  32 100 SE6       29.68F FOG     WCI  26
DULUTH HARBOR  MIX PCPN  34  32  93 CALM      29.73S
TWO HARBORS    CLOUDY    36  30  80 E1        29.70F
SILVER BAY     LGT SNOW  34  34 100 CALM      29.72S
GRAND MARAIS     N/A     38  35  89 S13       29.78S
G MARAIS ARPRT MIX PCPN  30  28  93 S5        29.74S WCI  25
$$
MNZ029>031-032-039>041-046>048-054>057-064-221200-
   West Central Minnesota

CITY           SKY/WX    TMP DP  RH WIND       PRES   REMARKS
FERGUS FALLS   CLOUDY    36  36 100 SE16      29.53F FOG
WHEATON        CLOUDY    34  34 100 SE14      29.51S FOG     WCI  24
MORRIS         FOG       36  36 100 SE18      29.50F VSB 1/2
ALEXANDRIA     CLOUDY    36  35  96 SE14      29.54F FOG
ELBOW LAKE     DRIZZLE   35  35 100 SE17      29.50F WCI  25
WADENA         DRIZZLE   34  34 100 SE9       29.55S WCI  26
GLENWOOD       DRIZZLE   36  36 100 SE14      29.55S
APPLETON       CLOUDY    37  36  93 SE10      29.51F FOG
BENSON         CLOUDY    37  36  93 S12       29.53S FOG
ORTONVILLE     DRIZZLE   36  34  93 SE14      29.49S
MADISON        LGT RAIN  39  37  93 SE9       29.50F
WILLMAR        FOG       37  36  93 SE14      29.57S VSB 1
$$
MNZ033>034-036-042>043-049>051-058-059-221200-
   Central Minnesota

CITY           SKY/WX    TMP DP  RH WIND       PRES   REMARKS
ST CLOUD       CLOUDY    39  36  89 SE16      29.61S FOG
SAUK CENTRE    DRIZZLE   35  35 100 SE12      29.56F WCI  27
PAYNESVILLE    LGT RAIN  34  35 100 E12G17    29.58F WCI  26
AITKIN         CLOUDY    37  34  87 SE6       29.61F HAZE
PINE RIVER     DRIZZLE   34  34 100 SE6       29.62F WCI  29
BRAINERD       CLOUDY    36  35  96 SE9       29.60F FOG
STAPLES        CLOUDY    36  36 100 SE7       29.57S FOG
LONG PRAIRIE   MIX PCPN  34  34 100 SE12      29.56F WCI  25
LITTLE FALLS   CLOUDY    36  34  93 SE9G16    29.60F FOG
LITCHFIELD     CLOUDY    37  37 100 SE10      29.60S FOG
BUFFALO        CLOUDY    37  36  94 SE9       29.64S
MAPLE LAKE     CLOUDY    38  38  98 SE9G17    29.63S FOG
$$
MNZ037-044-045-052-053-221200-
   East Central Minnesota

CITY           SKY/WX    TMP DP  RH WIND       PRES   REMARKS
PRINCETON      CLOUDY    37  37 100 SE10      29.64F FOG
MORA           CLOUDY    34  34 100 SE7       29.67F WCI  28
CAMBRIDGE      CLOUDY    37  32  81 SE8       29.64F HAZE
RUSH CITY      CLOUDY    36  35  96 SE10      29.68F
MOOSE LAKE     CLOUDY    34  32  93 SE3       29.66F FOG
HINCKLEY       DRIZZLE   36  36 100 CALM      29.67F
CLOQUET        MIX PCPN  34  34 100 SE5       29.68S WCI  30
MCGREGOR       CLOUDY    34  34 100 SE8       29.64F WCI  27
$$
MNZ071>073-080-081-089-090-097-098-221200-
   Southwest Minnesota

CITY           SKY/WX    TMP DP  RH WIND       PRES   REMARKS
MONTEVIDEO     CLOUDY    37  37 100 S10       29.54S FOG
GRANITE FALLS  DRIZZLE   38  37  99 SE13      29.55S
CANBY          DRIZZLE   38  37  94 SE8       29.50F
MARSHALL       CLOUDY    39  36  87 S13       29.52S
REDWOOD FALLS  CLOUDY    39  38  96 SE16      29.56F FOG
OLIVIA         CLOUDY    37  36  93 SE13      29.56F FOG
PIPESTONE      RAIN      37  37 100 S8        29.48F
WINDOM         LGT RAIN  39  39 100 SE14G20   29.55F
WORTHINGTON    CLOUDY    39 -11  11 S12       29.53F
JACKSON        CLOUDY    39  37  93 S15       29.57F FOG
TRACY          RAIN      39  38  97 S14       29.52F
SLAYTON        LGT RAIN  37  37 100 SE12      29.52F
$$
MNZ065>067-074>077-082>085-091>093-221200-
   South Central Minnesota

CITY           SKY/WX    TMP DP  RH WIND       PRES   REMARKS
MANKATO        CLOUDY    37  34  87 S17       29.63S
NEW ULM        MIX PCPN  39  39 100 S14       29.59F
ST JAMES       CLOUDY    39  37  93 SE14      29.60F FOG
FAIRMONT       CLOUDY    39  36  87 SE17      29.59F
GLENCOE        LGT RAIN  39  38  99 SE12      29.61F
FARIBAULT      CLOUDY    37  36  93 SE13G21   29.67S FOG
OWATONNA       CLOUDY    37  36  93 SE14      29.66F FOG
WASECA         CLOUDY    36  36 100 SE14      29.66S FOG
ALBERT LEA     CLOUDY    37  37 100 S14G20    29.65F FOG
$$
MNZ078>079-086>088-094>096-221200-
   Southeast Minnesota

CITY           SKY/WX    TMP DP  RH WIND       PRES   REMARKS
ROCHESTER      FOG       35  34  96 S18       29.71S VSB 1   WCI  24
RED WING       CLOUDY    37  36  93 SE10      29.71F FOG
STANTON        CLOUDY    38  36  89 SE13G18   29.67S FOG
DODGE CENTER   FOG       36  36 100 SE16      29.68F VSB 1
WINONA         CLOUDY    36  34  93 SE10      29.77S FOG
AUSTIN         DRIZZLE   36  36 100 SE9       29.68S
PRESTON        CLOUDY    34  33  96 S13G18    29.73S FOG     WCI  25
$$
ABBREVIATIONS USED IN REMARKS
   TC - TEMPERATURES IN CELSIUS
  WCI - WIND CHILL INDEX
   HX - HEAT INDEX
  VSB - VISIBILITY
$$


USA.gov is the U.S. government's official web portal to all federal, state and local government web resources and services.